EW7988 Weather Reports


time (UTC)temp
F
wind
direction
speed
knots
gust
knots
rain 1hr
in
rain 24hr
in
rain mn
in
humidity
%
barometer
mb
20260508024605 67 349 0.0 0.0 0.00 0.00 0.00 36 1006.6
20260508023056 68 355 0.0 0.0 0.00 0.00 0.00 31 1006.6
20260508021551 69 355 0.0 0.0 0.00 0.00 0.00 28 1006.7
20260508020048 69 309 0.0 0.0 0.00 0.00 0.00 24 1006.6
20260508014545 71 339 0.0 0.0 0.00 0.00 0.00 31 1006.3
20260508013041 71 282 0.0 0.0 0.00 0.00 0.00 29 1006.4
20260508011521 72 290 0.0 0.0 0.00 0.00 0.00 28 1006.4
20260508010018 73 308 0.0 0.0 0.00 0.00 0.00 26 1006.5
20260508004504 73 306 0.0 0.0 0.00 0.00 0.00 26 1006.4
20260508003058 75 339 0.0 0.0 0.00 0.00 0.00 23 1006.5
20260508001556 74 299 0.0 0.0 0.00 0.00 0.00 22 1006.3
20260508000053 75 290 0.0 0.0 0.00 0.00 0.00 22 1006.4
20260507234555 75 263 0.0 0.0 0.00 0.00 0.00 20 1006.4
20260507233150 75 360 0.0 0.0 0.00 0.00 0.00 21 1006.4
20260507231552 75 360 0.0 0.0 0.00 0.00 0.00 20 1006.6
20260507230049 76 313 0.0 0.0 0.00 0.00 0.00 19 1006.8
20260507224549 74 273 0.0 0.0 0.00 0.00 0.00 19 1007.0
20260507223148 75 313 0.0 0.0 0.00 0.00 0.00 21 1007.1
20260507221547 74 299 0.0 0.0 0.00 0.00 0.00 21 1007.3
20260507220046 73 360 0.0 0.0 0.00 0.00 0.00 20 1007.4
20260507214545 73 360 0.0 0.0 0.00 0.00 0.00 19 1007.5
20260507213143 73 288 0.0 0.0 0.00 0.00 0.00 19 1007.7
20260507211527 72 360 0.0 0.0 0.00 0.00 0.00 20 1007.8
20260507210029 72 360 0.0 0.0 0.00 0.00 0.00 21 1007.9
20260507204524 71 266 0.0 0.0 0.00 0.00 0.00 23 1008.1
20260507203023 71 269 0.0 0.0 0.00 0.00 0.00 27 1008.2
20260507201522 69 360 0.0 0.0 0.00 0.00 0.00 30 1008.3
20260507200022 69 360 0.0 0.0 0.00 0.00 0.00 27 1008.4
20260507194520 69 268 0.0 0.0 0.00 0.00 0.00 29 1008.5
20260507193018 67 360 0.0 0.0 0.00 0.00 0.00 32 1008.5
20260507191600 67 207 0.0 0.0 0.00 0.00 0.00 35 1008.7
20260507184541 65 259 0.0 0.0 0.00 0.00 0.00 40 1009.1
20260507183043 65 286 0.0 0.0 0.00 0.00 0.00 39 1009.3
20260507181519 65 309 0.0 0.0 0.00 0.00 0.00 41 1009.3
20260507180017 64 360 0.0 0.0 0.00 0.00 0.00 39 1009.2
20260507174606 64 360 0.0 0.0 0.00 0.00 0.00 40 1009.3
20260507173056 62 360 0.0 0.0 0.00 0.00 0.00 48 1009.3
20260507171555 61 187 0.0 0.0 0.00 0.00 0.00 50 1009.3
20260507170040 61 360 0.0 0.0 0.00 0.00 0.00 53 1009.3
20260507164536 61 360 0.0 0.0 0.00 0.00 0.00 54 1009.3
20260507163032 61 360 0.0 0.0 0.00 0.00 0.00 48 1009.3
20260507161531 60 360 0.0 0.0 0.00 0.00 0.00 51 1009.5
20260507160031 59 360 0.0 0.0 0.00 0.00 0.00 54 1009.6
20260507154534 57 360 0.0 0.0 0.00 0.00 0.00 58 1009.7
20260507153030 57 360 0.0 0.0 0.00 0.00 0.00 59 1009.9
20260507151512 56 360 0.0 0.0 0.00 0.00 0.00 60 1010.1
20260507150011 56 360 0.0 0.0 0.00 0.00 0.00 61 1010.0
20260507144615 55 360 0.0 0.0 0.00 0.00 0.00 64 1009.9
20260507143055 54 330 0.0 0.0 0.00 0.00 0.00 64 1010.0
20260507141548 53 330 0.0 0.0 0.00 0.00 0.00 68 1010.0
20260507140042 52 329 0.0 0.0 0.00 0.00 0.00 70 1010.1
20260507134546 49 329 0.0 0.0 0.00 0.00 0.00 73 1010.0
20260507133042 48 328 0.0 0.0 0.00 0.00 0.00 76 1009.9
20260507131544 45 345 0.0 0.0 0.00 0.00 0.00 79 1009.7
20260507130039 46 275 0.0 0.0 0.00 0.00 0.00 75 1009.6
20260507124538 46 275 0.0 0.0 0.00 0.00 0.00 76 1009.3
20260507123038 45 275 0.0 0.0 0.00 0.00 0.00 77 1009.4
20260507121517 45 275 0.0 0.0 0.00 0.00 0.00 75 1009.4
20260507120015 46 275 0.0 0.0 0.00 0.00 0.00 74 1009.7
20260507114502 46 275 0.0 0.0 0.00 0.00 0.00 74 1009.6
20260507113059 47 275 0.0 0.0 0.00 0.00 0.00 71 1009.6
20260507111557 50 267 0.0 0.0 0.00 0.00 0.00 67 1009.6
20260507110055 52 360 0.0 0.0 0.00 0.00 0.00 65 1009.4
20260507104557 51 360 0.0 0.0 0.00 0.00 0.00 66 1009.3
20260507103055 53 360 0.0 0.0 0.00 0.00 0.00 61 1009.1
20260507101553 56 360 0.0 0.0 0.00 0.00 0.00 56 1009.2
20260507100052 56 207 0.0 0.0 0.00 0.00 0.00 56 1009.4
20260507094546 55 360 0.0 0.0 0.00 0.00 0.00 56 1009.4
20260507093045 56 360 0.0 0.0 0.00 0.00 0.00 54 1009.3
20260507091543 52 360 0.0 0.0 0.00 0.00 0.00 61 1009.4
20260507090040 51 307 0.0 0.0 0.00 0.00 0.00 64 1009.6
20260507084543 49 11 0.0 0.0 0.00 0.00 0.00 67 1009.8
20260507083036 49 10 0.0 0.0 0.00 0.00 0.00 67 1010.1
20260507081532 50 10 0.0 0.0 0.00 0.00 0.00 65 1009.9
20260507080037 52 303 0.0 0.0 0.00 0.00 0.00 62 1009.9
20260507074513 51 304 0.0 0.0 0.00 0.00 0.00 64 1010.0
20260507073010 51 290 0.0 0.0 0.00 0.00 0.00 62 1010.0
20260507071559 53 274 0.0 0.0 0.00 0.00 0.00 60 1010.0
20260507070101 52 360 0.0 0.0 0.00 0.00 0.00 61 1010.1
20260507064552 53 360 0.0 0.0 0.00 0.00 0.00 59 1010.1
20260507063050 56 360 0.0 0.0 0.00 0.00 0.00 55 1010.1
20260507061545 58 360 0.0 0.0 0.00 0.00 0.00 53 1010.2
20260507060051 59 360 0.0 0.0 0.00 0.00 0.00 52 1010.2
20260507054548 58 360 0.0 0.0 0.00 0.00 0.00 52 1010.2
20260507053042 59 360 0.0 0.0 0.00 0.00 0.00 50 1010.3
20260507051520 59 336 0.0 0.0 0.00 0.00 0.00 49 1010.1
20260507050019 60 336 0.0 0.0 0.00 0.00 0.00 48 1010.3
20260507044616 60 360 0.0 0.0 0.00 0.00 0.00 47 1010.3
20260507043103 59 360 0.0 0.0 0.00 0.00 0.00 50 1010.2
20260507041553 60 360 0.0 0.0 0.00 0.00 0.00 49 1010.1
20260507040039 60 360 0.0 0.0 0.00 0.00 0.00 48 1009.9
20260507034538 63 360 0.0 0.0 0.00 0.00 0.00 46 1009.6
20260507033031 64 360 0.0 0.0 0.00 0.00 0.00 43 1009.6
20260507031524 66 360 0.0 0.0 0.00 0.00 0.00 42 1009.4
20260507030021 67 271 0.0 0.0 0.00 0.00 0.00 40 1009.4